Location: Litvinovka
(48.6667°N, 34.3500°E)
Time: 11:29:41
(UTC+00:00)

Cosmos 1892 Rocket - Pass Details

Date: 18 September 2020
Orbit: 606 x 633 km, 82.5° (Epoch: 30 October)

Event Time Altitude Azimuth Distance (km) Brightness Sun altitude
Rises 18:37:38 0° 350° (N) 2,879 7.7 -26.7°
Reaches altitude 10° 18:39:51 10° 350° (N) 1,969 6.7 -27.0°
Enters shadow 18:42:56 46° 351° (N) 825 4.4 -27.4°
